• Join FlightAware (Why Join?)
  • Login
  • US Flag 
12:40AM EDT


 

Airport Tracker/Info


-or-


 

Live Flight TrackerFlight Track Log ✈ EJA102 ✈ 01-Jan-2014 ✈ KLUK - KGYH

Flight Track Log - Related Links

Times and Time Zones

All times are in EST time to prevent confusion due to time zone crossing. See the EJA102 flight status page for this flight to view local times or setup timezone preferences in your user account.

Time Position Orientation Groundspeed Altitude Reporting Facility
EST Latitude Longitude Course Direction KTS MPH feet Rate Location/Type
07:57PM 39.0833 -84.4167 207° Southwest 174 200 1,400  Level Cincinnati TRACON
07:58PM 39.0333 -84.4500 207° Southwest 194 223 3,900 2,460 Climbing Cincinnati TRACON
07:59PM 38.9878 -84.4739 202° Southwest 198 228 6,400 2,220 Climbing Indianapolis Center
08:00PM 38.9261 -84.4994 198° South 232 267 8,500 2,640 Climbing Indianapolis Center
08:01PM 38.8458 -84.5325 198° South 261 300 11,800 2,700 Climbing Indianapolis Center
08:02PM 38.7817 -84.5578 197° South 263 303 14,000 2,040 Climbing Indianapolis Center
08:03PM 38.7056 -84.5856 196° South 280 322 16,000 1,920 Climbing Indianapolis Center
08:04PM 38.6131 -84.5672 171° South 308 354 18,000 1,860 Climbing Indianapolis Center
08:05PM 38.5300 -84.5458 169° South 306 352 19,900 1,860 Climbing Indianapolis Center
08:06PM 38.4458 -84.5233 168° South 307 353 21,800 1,560 Climbing Indianapolis Center
08:07PM 38.3614 -84.5017 169° South 308 354 23,200 1,260 Climbing Indianapolis Center
08:08PM 38.2733 -84.4767 167° South 316 364 24,500 1,200 Climbing Indianapolis Center
08:09PM 38.1753 -84.4544 170° South 345 397 25,700 1,200 Climbing Indianapolis Center
08:10PM 38.0586 -84.4264 169° South 360 414 27,000 1,140 Climbing Indianapolis Center
08:11PM 37.9592 -84.4006 168° South 364 419 28,100 1,080 Climbing Indianapolis Center
08:12PM 37.8586 -84.3742 168° South 369 425 29,300 900 Climbing Indianapolis Center
08:13PM 37.7581 -84.3483 169° South 368 423 30,000 300 Climbing Indianapolis Center
08:14PM 37.6528 -84.3233 169° South 379 436 30,000  Level Indianapolis Center
08:15PM 37.5442 -84.2756 161° South 423 487 30,000  Level Indianapolis Center
08:16PM 37.4467 -84.1853 144° Southeast 432 497 30,000  Level Indianapolis Center
08:17PM 37.3522 -84.0939 142° Southeast 430 495 30,000  Level Indianapolis Center
08:18PM 37.2567 -84.0014 142° Southeast 432 497 30,000  Level Indianapolis Center
08:19PM 37.1600 -83.9086 143° Southeast 436 502 30,000  Level Indianapolis Center
08:20PM 37.0478 -83.8011 143° Southeast 437 503 30,000  Level Indianapolis Center
08:21PM 36.9528 -83.7100 143° Southeast 432 497 30,000  Level Indianapolis Center
08:22PM 36.8578 -83.6194 143° Southeast 430 495 30,000  Level Indianapolis Center
08:23PM 36.7633 -83.5294 143° Southeast 430 495 30,000 -840 Level Indianapolis Center
08:24PM 36.6656 -83.4372 143° Southeast 436 502 28,300 -1,860 Descending Indianapolis Center
08:25PM 36.5614 -83.3394 143° Southeast 457 526 26,300 -1,980 Descending Indianapolis Center
08:26PM 36.4569 -83.2419 143° Southeast 469 540 24,300 -2,040 Descending Indianapolis Center
08:27PM 36.3681 -83.1622 144° Southeast 464 534 22,800 -1,980 Descending Atlanta Center
08:28PM 36.2714 -83.0703 143° Southeast 459 528 20,900 -1,800 Descending Atlanta Center
08:29PM 36.1767 -82.9817 143° Southeast 447 514 19,300 -960 Descending Atlanta Center
08:30PM 36.0800 -82.8928 143° Southeast 442 509 19,000 -240 Descending Atlanta Center
08:31PM 35.9875 -82.8044 142° Southeast 431 496 18,900 -720 Descending Atlanta Center
08:32PM 35.8969 -82.7186 142° Southeast 425 489 17,600 -1,260 Descending Atlanta Center
08:33PM 35.8103 -82.6381 143° Southeast 405 466 16,400 -1,200 Descending Atlanta Center
08:34PM 35.7261 -82.5628 144° Southeast 382 440 15,300 -1,140 Descending Atlanta Center
08:35PM 35.6500 -82.4900 142° Southeast 382 440 14,200 -1,140 Descending Atlanta Center
08:36PM 35.5614 -82.4100 144° Southeast 390 449 13,100 -1,200 Descending Atlanta Center
08:37PM 35.4769 -82.3353 144° Southeast 390 449 11,900 -1,200 Descending Atlanta Center
08:38PM 35.3906 -82.2681 148° Southeast 385 443 10,700 -1,440 Descending Atlanta Center
08:39PM 35.3069 -82.2597 175° South 334 384 9,100 -1,620 Descending Atlanta Center
08:41PM 35.1750 -82.2429 174° South  Level FlightAware Approximate
08:48PM 34.7500 -82.3667 202° Southwest  Level FlightAware Approximate
08:49PM 34.7583 -82.3764 202° Southwest  Level Estimated
08:50PM 34.7583 -82.3764 202° Southwest  Level Estimated
08:51PM 34.7583 -82.3764 202° Southwest  Level Estimated
08:52PM 34.7583 -82.3764 202° Southwest  Level Estimated
08:53PM 34.7583 -82.3764 202° Southwest  Level Estimated
08:54PM 34.7583 -82.3764 202° Southwest  Level Estimated
08:55PM 34.7583 -82.3764 202° Southwest  Level Estimated
08:56PM 34.7583 -82.3764 202° Southwest  Level Estimated